GW4028 Weather Reports


time (UTC)temp
F
wind
direction
speed
knots
gust
knots
rain 1hr
in
rain 24hr
in
rain mn
in
humidity
%
barometer
mb
20260505022910 46 93 0.9 1.7 0.00 0.00 0.00 54 1013.8
20260505022408 46 46 0.9 1.7 0.00 0.00 0.00 54 1013.4
20260505021904 46 86 0.9 2.6 0.00 0.00 0.00 51 1013.8
20260505021401 46 78 0.0 1.7 0.00 0.00 0.00 50 1013.7
20260505020857 46 78 0.0 0.0 0.00 0.00 0.00 50 1013.5
20260505020352 46 77 0.0 0.0 0.00 0.00 0.00 51 1013.5
20260505015850 47 69 1.7 1.7 0.00 0.00 0.00 49 1013.7
20260505015346 47 79 0.0 0.9 0.00 0.00 0.00 48 1013.7
20260505014844 48 85 0.0 0.9 0.00 0.00 0.00 47 1013.7
20260505014341 48 83 0.0 2.6 0.00 0.00 0.00 45 1013.4
20260505013837 48 98 0.9 1.7 0.00 0.00 0.00 43 1013.5
20260505013334 48 86 0.0 0.0 0.00 0.00 0.00 47 1013.5
20260505012833 48 86 0.0 1.7 0.00 0.00 0.00 46 1013.5
20260505012330 49 90 0.0 0.0 0.00 0.00 0.00 44 1013.5
20260505011826 49 78 0.0 0.0 0.00 0.00 0.00 44 1013.5
20260505011323 49 78 0.0 0.0 0.00 0.00 0.00 41 1013.8
20260505010819 49 78 0.0 0.0 0.00 0.00 0.00 41 1013.7
20260505010315 49 85 0.0 0.0 0.00 0.00 0.00 44 1013.9
20260505005812 49 85 0.0 0.0 0.00 0.00 0.00 46 1013.9
20260505005309 49 84 0.0 0.0 0.00 0.00 0.00 45 1013.5
20260505004806 49 84 0.0 0.0 0.00 0.00 0.00 46 1013.8
20260505004302 48 91 0.0 0.0 0.00 0.00 0.00 42 1014.0
20260505003800 48 91 0.0 0.9 0.00 0.00 0.00 43 1013.9
20260505003257 48 89 0.0 0.0 0.00 0.00 0.00 44 1014.0
20260505002753 47 89 0.0 0.0 0.00 0.00 0.00 48 1014.2
20260505002250 47 88 0.0 0.0 0.00 0.00 0.00 46 1014.2
20260505001748 46 74 0.0 0.0 0.00 0.00 0.00 48 1014.2
20260505001245 46 80 0.0 0.0 0.00 0.00 0.00 48 1014.4
20260505000742 46 76 0.9 1.7 0.00 0.00 0.00 48 1014.4
20260505000240 46 42 1.7 2.6 0.00 0.00 0.00 53 1014.5
20260504235736 45 58 1.7 1.7 0.00 0.00 0.00 54 1014.5
20260504235232 44 349 2.6 3.5 0.00 0.00 0.00 55 1014.8
20260504234730 44 337 2.6 7.0 0.00 0.00 0.00 60 1014.9
20260504234227 43 66 1.7 6.1 0.00 0.00 0.00 68 1015.2
20260504233724 43 43 1.7 7.0 0.00 0.00 0.00 68 1015.3
20260504233219 43 76 0.9 7.0 0.00 0.00 0.00 68 1014.9
20260504232717 43 338 6.1 7.8 0.00 0.00 0.00 67 1015.2
20260504232213 44 343 2.6 5.2 0.00 0.00 0.00 67 1015.3
20260504231710 44 6 4.3 6.1 0.00 0.00 0.00 65 1014.9
20260504231207 46 69 3.5 7.0 0.00 0.00 0.00 61 1015.0
20260504230703 46 58 1.7 11.3 0.00 0.00 0.00 58 1015.0
20260504230202 47 33 4.3 8.7 0.00 0.00 0.00 55 1015.0
20260504225700 47 334 3.5 5.2 0.00 0.00 0.00 54 1014.9
20260504225155 48 81 3.5 5.2 0.00 0.00 0.00 51 1014.8
20260504224653 48 81 0.9 1.7 0.00 0.00 0.00 51 1014.8
20260504224149 49 123 1.7 5.2 0.00 0.00 0.00 51 1014.7
20260504223647 49 86 0.0 1.7 0.00 0.00 0.00 53 1014.8
20260504223142 49 46 3.5 3.5 0.00 0.00 0.00 51 1014.8
20260504222639 50 15 1.7 6.1 0.00 0.00 0.00 49 1014.7
20260504222136 50 102 1.7 2.6 0.00 0.00 0.00 49 1014.8
20260504221633 51 160 1.7 2.6 0.00 0.00 0.00 39 1014.7
20260504221130 52 66 1.7 3.5 0.00 0.00 0.00 37 1014.5
20260504220626 52 91 0.0 0.9 0.00 0.00 0.00 36 1014.7
20260504220125 54 268 1.7 2.6 0.00 0.00 0.00 34 1014.4
20260504215620 55 92 0.9 6.1 0.00 0.00 0.00 33 1014.4
20260504215118 56 82 0.0 1.7 0.00 0.00 0.00 31 1014.3
20260504214614 55 61 0.9 2.6 0.00 0.00 0.00 29 1014.3
20260504214110 56 103 3.5 5.2 0.00 0.00 0.00 30 1014.4
20260504213607 58 47 2.6 5.2 0.00 0.00 0.00 30 1014.2
20260504213104 56 248 2.6 3.5 0.00 0.00 0.00 33 1014.2
20260504212559 57 22 2.6 3.5 0.00 0.00 0.00 32 1014.2
20260504212057 55 77 0.9 1.7 0.00 0.00 0.00 34 1014.5
20260504211554 53 65 1.7 2.6 0.00 0.00 0.00 35 1014.5
20260504211051 53 80 0.0 0.9 0.00 0.00 0.00 35 1014.8
20260504210548 52 48 0.0 2.6 0.00 0.00 0.00 35 1014.8
20260504210044 52 72 0.9 3.5 0.00 0.00 0.00 38 1014.8
20260504205542 52 66 0.0 3.5 0.00 0.00 0.00 38 1015.0
20260504205040 52 77 0.9 6.1 0.00 0.00 0.00 38 1015.0
20260504204538 52 43 0.9 2.6 0.00 0.00 0.00 36 1014.9
20260504204037 52 77 0.0 1.7 0.00 0.00 0.00 38 1015.0
20260504203534 52 58 0.0 0.9 0.00 0.00 0.00 37 1015.2
20260504203032 52 87 0.0 0.0 0.00 0.00 0.00 39 1014.9
20260504202527 52 73 0.0 0.0 0.00 0.00 0.00 37 1015.2
20260504202024 51 85 0.0 1.7 0.00 0.00 0.00 38 1015.3
20260504201521 51 103 0.9 0.9 0.00 0.00 0.00 38 1015.3
20260504201019 51 106 1.7 2.6 0.00 0.00 0.00 37 1015.4
20260504200515 51 73 0.9 5.2 0.00 0.00 0.00 39 1015.6
20260504200012 51 67 1.7 6.1 0.00 0.00 0.00 39 1015.3
20260504195508 51 100 0.9 3.5 0.00 0.00 0.00 39 1015.3
20260504195005 51 102 1.7 1.7 0.00 0.00 0.00 38 1015.4
20260504194501 51 125 3.5 3.5 0.00 0.00 0.00 39 1015.6
20260504193956 50 139 2.6 3.5 0.00 0.00 0.00 42 1015.8
20260504193454 50 97 0.0 2.6 0.00 0.00 0.00 41 1015.7
20260504192953 51 96 0.0 1.7 0.00 0.00 0.00 41 1015.6
20260504192449 50 110 0.9 3.5 0.00 0.00 0.00 40 1015.4
20260504191948 50 128 0.9 1.7 0.00 0.00 0.00 40 1015.8
20260504191446 50 112 0.9 5.2 0.00 0.00 0.00 39 1015.8
20260504190941 51 155 1.7 2.6 0.00 0.00 0.00 39 1015.7
20260504190437 51 148 3.5 3.5 0.00 0.00 0.00 40 1015.7
20260504185934 51 106 0.9 1.7 0.00 0.00 0.00 43 1015.7
20260504185431 51 93 0.9 1.7 0.00 0.00 0.00 41 1015.8
20260504184927 51 88 0.0 0.9 0.00 0.00 0.00 43 1015.7
20260504184423 51 88 0.9 2.6 0.00 0.00 0.00 43 1015.8
20260504183919 52 63 1.7 3.5 0.00 0.00 0.00 41 1015.7
20260504183416 52 100 0.0 1.7 0.00 0.00 0.00 41 1015.6
20260504182914 52 97 0.0 1.7 0.00 0.00 0.00 42 1015.7
20260504182411 52 139 3.5 3.5 0.00 0.00 0.00 42 1015.8
20260504181908 53 351 2.6 5.2 0.00 0.00 0.00 37 1015.7
20260504181405 54 88 0.9 5.2 0.00 0.00 0.00 33 1015.6
20260504180904 54 83 0.0 2.6 0.00 0.00 0.00 32 1015.7
20260504180402 56 60 1.7 3.5 0.00 0.00 0.00 30 1015.6
20260504175900 56 107 2.6 5.2 0.00 0.00 0.00 30 1015.6
20260504175356 53 39 1.7 1.7 0.00 0.00 0.00 34 1015.7
20260504174854 53 63 0.9 3.5 0.00 0.00 0.00 32 1015.8
20260504174352 53 78 0.0 1.7 0.00 0.00 0.00 34 1015.7
20260504173849 54 188 2.6 3.5 0.00 0.00 0.00 35 1015.9
20260504173345 54 109 0.0 3.5 0.00 0.00 0.00 33 1015.9
20260504172842 54 286 2.6 3.5 0.00 0.00 0.00 31 1015.9
20260504172339 53 75 0.9 1.7 0.00 0.00 0.00 33 1015.9
20260504171835 54 78 0.0 3.5 0.00 0.00 0.00 32 1016.2
20260504171332 53 77 1.7 3.5 0.00 0.00 0.00 33 1015.9
20260504170829 53 324 0.9 2.6 0.00 0.00 0.00 37 1016.1
20260504170326 52 79 1.7 2.6 0.00 0.00 0.00 38 1016.2
20260504160244 50 105 2.6 2.6 0.00 0.00 0.00 39 1016.3
20260504150710 47 89 0.0 2.6 0.00 0.00 0.00 51 1016.4
20260504150207 46 105 0.9 1.7 0.00 0.00 0.00 49 1016.6
20260504141136 43 95 0.0 0.0 0.00 0.00 0.00 51 1016.7
20260504140632 43 109 0.0 0.9 0.00 0.00 0.00 49 1016.6
20260504140128 42 94 0.0 0.0 0.00 0.00 0.00 49 1016.6
20260504130556 38 69 0.0 0.0 0.00 0.00 0.00 50 1016.8
20260504110444 40 69 0.0 0.0 0.00 0.00 0.00 45 1016.2
20260504100406 40 77 0.0 0.0 0.00 0.00 0.00 43 1016.4
20260504081759 42 71 0.0 0.0 0.00 0.00 0.00 35 1016.2
20260504081256 42 74 0.0 0.9 0.00 0.00 0.00 35 1016.4
20260504080753 42 69 0.0 0.0 0.00 0.00 0.00 35 1016.4
20260504080249 42 69 0.0 0.0 0.00 0.00 0.00 38 1016.6
20260504070217 42 73 0.0 0.0 0.00 0.00 0.00 34 1016.9
20260504060137 42 69 0.0 0.0 0.00 0.00 0.00 35 1017.5
20260504050605 43 70 0.0 0.0 0.00 0.00 0.00 38 1017.7
20260504045559 43 70 0.0 0.0 0.00 0.00 0.00 39 1017.8
20260504045054 44 70 0.0 0.0 0.00 0.00 0.00 37 1017.8
20260504044552 44 71 0.0 0.0 0.00 0.00 0.00 36 1018.0
20260504044049 44 70 0.0 0.0 0.00 0.00 0.00 35 1017.8
20260504043546 43 70 0.0 0.0 0.00 0.00 0.00 38 1017.7
20260504043043 43 68 0.0 0.0 0.00 0.00 0.00 37 1018.0
20260504042540 44 67 0.0 0.0 0.00 0.00 0.00 36 1017.8
20260504042037 44 65 0.0 0.0 0.00 0.00 0.00 35 1017.7
20260504041533 44 65 0.0 0.0 0.00 0.00 0.00 36 1017.8
20260504041029 44 64 0.0 0.0 0.00 0.00 0.00 38 1017.8
20260504040527 45 65 0.0 0.0 0.00 0.00 0.00 35 1017.8
20260504040023 45 65 0.0 0.0 0.00 0.00 0.00 36 1017.6
20260504035520 44 65 0.0 0.0 0.00 0.00 0.00 36 1017.8
20260504035016 45 65 0.0 0.0 0.00 0.00 0.00 35 1017.6
20260504034514 45 65 0.0 0.0 0.00 0.00 0.00 34 1017.7
20260504034011 46 65 0.0 0.0 0.00 0.00 0.00 36 1018.0
20260504033509 46 65 0.0 0.0 0.00 0.00 0.00 35 1018.1
20260504033006 46 65 0.0 0.0 0.00 0.00 0.00 33 1018.0
20260504032503 46 65 0.0 0.0 0.00 0.00 0.00 35 1017.8
20260504031959 47 65 0.0 0.0 0.00 0.00 0.00 34 1017.7
20260504031456 47 66 0.0 0.0 0.00 0.00 0.00 33 1017.7
20260504030953 47 66 0.0 0.0 0.00 0.00 0.00 32 1017.7
20260504030450 47 65 0.0 0.0 0.00 0.00 0.00 32 1018.0
20260504025946 47 65 0.0 0.0 0.00 0.00 0.00 33 1017.8
20260504025443 47 65 0.0 0.0 0.00 0.00 0.00 31 1017.8
20260504024940 48 66 0.0 0.0 0.00 0.00 0.00 32 1017.7
20260504024437 47 65 0.0 0.0 0.00 0.00 0.00 32 1018.0
20260504023934 47 66 0.0 0.0 0.00 0.00 0.00 36 1017.6
20260504023430 47 66 0.0 0.0 0.00 0.00 0.00 36 1017.8